Regional Weather Roundup
Issued by NWS

Home | Current Version | Previous Version | Graphics & Text | Print | Product List | Glossary On
Versions: 1 2 3 4 5 6 7 8 9 10 11 12 13 14 15 16 17 18 19 20 21 22 23 24 25 26 27 28
000
ASUS45 KSLC 191610
RWRUT

UTAH REGIONAL WEATHER ROUNDUP
NATIONAL WEATHER SERVICE SALT LAKE CITY UT
1000 AM MDT SAT APR 19 2014

UTZ001>011-023>025-191700-

NORTHERN UTAH

CITY           SKY/WX    TMP DP  RH WIND       PRES   REMARKS
HILL AFB       CLOUDY    53  36  52 SE10      30.03S
LOGAN          LGT RAIN  43  38  82 CALM      30.05S
OGDEN          CLOUDY    56  36  47 S7        30.02S
PROVO AIRPORT  MOSUNNY   55  37  50 CALM      30.04S
SALT LAKE CITY PTSUNNY   58  42  55 CALM      30.01S
VERNAL         PTSUNNY   57  36  45 CALM      30.05R
WENDOVER       MOSUNNY   55  30  38 CALM      30.03S
HEBER CITY     MOSUNNY   52  34  50 CALM      30.05S
WEST JORDAN    SUNNY     57  45  62 S3        30.03S

$$

UTZ012>022-026-027-191700-

SOUTHERN UTAH

CITY           SKY/WX    TMP DP  RH WIND       PRES   REMARKS
BRYCE CANYON   MOSUNNY   48  30  49 CALM      30.16S
CEDAR CITY     SUNNY     57  29  34 NE6       30.08R
MILFORD        SUNNY     59  32  36 S15       30.05S
MOAB/CYNLANDS  PTSUNNY   56  46  69 VRB7      30.08R
PRICE          MOSUNNY   57  37  47 SE7       30.10R
ST GEORGE      MOSUNNY   64  36  34 E3        30.03S
KANAB          PTSUNNY   57  37  47 E3        30.12

$$

REGIONAL REPORTS     COLORADO/ARIZONA

CITY           SKY/WX    TMP DP  RH WIND       PRES   REMARKS
CRAIG, CO      CLOUDY    55  37  50 NE3       30.09F
GRAND JUNCTION CLOUDY    51  48  89 NW8       30.12R
RIFLE          CLOUDY    58  38  47 W15       30.10S
MONTROSE       CLOUDY    54  42  64 N9        30.14S
CORTEZ         MOSUNNY   54  45  71 CALM      30.15S
PAGE, AZ       PTSUNNY   63  39  41 CALM      30.06S
GRAND CANYON   SUNNY     54  37  52 SE7       30.12F
KINGMAN        SUNNY     65  41  41 SE9       30.01S
FLAGSTAFF      SUNNY     50  39  66 S3        30.14S

$$

REGIONAL REPORTS    NEVADA/IDAHO/WYOMING

CITY           SKY/WX    TMP DP  RH WIND       PRES   REMARKS
LAS VEGAS, NV  MOSUNNY   71  41  33 SE5       29.94R
ELY            SUNNY     55  28  35 S6        30.08S
ELKO           MOSUNNY   50  26  39 CALM      30.04F
POCATELLO, ID  SUNNY     51  20  29 CALM      30.05R
BURLEY         SUNNY     49  31  49 E6        30.00F
EVANSTON, WY   PTSUNNY   48  32  53 CALM      30.09S
ROCK SPRINGS   MOSUNNY   51  22  31 W3        30.09S

$$



USA.gov is the U.S. government's official web portal to all federal, state and local government web resources and services.